Regional Weather Roundup
Issued by NWS

Home | Current Version | Previous Version | Graphics & Text | Print | Product List | Glossary Off
Versions: 1 2 3 4 5 6 7 8 9 10 11 12 13 14 15 16 17 18 19 20 21 22 23 24 25 26 27 28 29 30 31 32 33 34 35 36 37 38 39 40 41 42 43 44 45 46 47 48 49 50

000
ASUS43 KTOP 280559
RWRKS

WEATHER ROUNDUP FOR KANSAS
NATIONAL WEATHER SERVICE GOODLAND KS
100 AM CDT SAT MAR 28 2015

NOTE:  "FAIR" INDICATES FEW OR NO CLOUDS BELOW 12,000 FEET WITH NO
SIGNIFICANT WEATHER AND/OR OBSTRUCTIONS TO VISIBILITY.

KSZ001>006-013>018-027>032-041>047-280700-
NORTHWEST KANSAS

CITY           SKY/WX    TMP DP  RH WIND       PRES   REMARKS
GOODLAND       CLEAR     48  33  56 W10       30.03R
6HR MIN TEMP:  47; 6HR MAX TEMP:  64;

HAYS           CLOUDY    46  32  57 SE6       29.98S
HILL CITY      PTCLDY    42  33  70 CALM      29.97S
6HR MIN TEMP:  41; 6HR MAX TEMP:  62;

RUSSELL        PTCLDY    39  32  76 E6        29.99R
6HR MIN TEMP:  39; 6HR MAX TEMP:  55;

$$

KSZ061>065-074>080-084>089-280700-
SOUTHWEST KANSAS

CITY           SKY/WX    TMP DP  RH WIND       PRES   REMARKS
DODGE CITY     PTCLDY    46  34  62 SW12      30.00F
6HR MIN TEMP:  46; 6HR MAX TEMP:  62;

ELKHART          N/A     57  31  37 SW9         N/A
GARDEN CITY    PTCLDY    45  37  73 S7        30.00F
6HR MIN TEMP:  45; 6HR MAX TEMP:  64;

GREAT BEND     PTCLDY    45  34  65 S6        30.00S
LIBERAL        PTCLDY    48  30  49 SW10      30.04F
$$

KSZ066>073-081>083-090>101-280700-
SOUTHEAST KANSAS

CITY           SKY/WX    TMP DP  RH WIND       PRES   REMARKS
CHANUTE        PTCLDY    39  25  57 SE7       30.11F
6HR MIN TEMP:  39; 6HR MAX TEMP:  47;

COFFEYVILLE    MOCLDY    41  32  70 E5        30.12S
6HR MIN TEMP:  41; 6HR MAX TEMP:  50;

HUTCHINSON     CLOUDY    45  32  60 SE10      30.05S
6HR MIN TEMP:  43; 6HR MAX TEMP:  51;

MEDICINE LODGE   N/A     43  35  73 SE6       30.03F
NEWTON         CLOUDY    43  28  56 SE7       30.07F
PARSONS        PTCLDY    42  29  59 CALM      30.12F
6HR MIN TEMP:  41; 6HR MAX TEMP:  49;

WICHITA INTL   CLOUDY    46  30  53 S12       30.05F
6HR MIN TEMP:  43; 6HR MAX TEMP:  50;

WICHITA JABRA  CLOUDY    44  32  62 S7        30.06F
6HR MIN TEMP:  42; 6HR MAX TEMP:  48; 6HR PCP: TRACE;

WINFIELD       CLOUDY    46  32  58 SE6       30.09S
6HR MIN TEMP:  42; 6HR MAX TEMP:  51;

$$

KSZ007>012-019>026-033>040-048>060-102>105-280700-
NORTHEAST KANSAS

CITY           SKY/WX    TMP DP  RH WIND       PRES   REMARKS
EMPORIA        MOCLDY    37  23  56 SE8       30.08F
6HR MIN TEMP:  34; 6HR MAX TEMP:  45;

LAWRENCE       CLOUDY    39  24  55 SE6       30.11F
6HR MIN TEMP:  39; 6HR MAX TEMP:  42;

MANHATTAN      PTCLDY    38  22  52 SE5       30.07F
6HR MIN TEMP:  38; 6HR MAX TEMP:  45;

OLATHE IND     CLOUDY    39  24  55 SE6       30.12F
6HR MIN TEMP:  39; 6HR MAX TEMP:  41;

OLATHE EXE     CLOUDY    39  22  50 SE6       30.10F
6HR MIN TEMP:  39; 6HR MAX TEMP:  42;

SALINA         CLOUDY    46  31  55 S8        30.04F
6HR MIN TEMP:  45; 6HR MAX TEMP:  49; 6HR PCP: TRACE;

TOPEKA BILLARD CLOUDY    39  24  55 SE8       30.10F
6HR MIN TEMP:  39; 6HR MAX TEMP:  43;

TOPEKA FORBES  CLOUDY    40  25  55 SE6       30.09F
6HR MIN TEMP:  40; 6HR MAX TEMP:  44;

$$


USA.gov is the U.S. government's official web portal to all federal, state and local government web resources and services.